カタリナ-パンスターズ彗星

299P/Catalina-PanSTARRS (2024)

English version
Home page
Updated on September 27, 2024

---------------------------------------------------------------------

・ プロフィール

・ 写真集

・ 軌道要素

Epoch 2024 Oct. 17.0 TT = JDT 2460600.5
T 2024 Apr. 30.21649 TT                                 Rudenko
q   3.1562768            (2000.0)            P               Q
n   0.10717632     Peri.  323.66244     -0.56023685     +0.80817421
a   4.3893831      Node   271.58062     -0.71070716     -0.58161323
e   0.2809293      Incl.   10.46869     -0.42547622     -0.09263099
P   9.20
>From 794 observations 2005 Mar. 11-2024 Sept. 1, mean residual 0".7.

・ 光度変化

        m1 =  7.5 + 5 logΔ + 15.0 log r  [  ,20]  (              〜2024年 5月20日)
        m1 = -1.5 + 5 logΔ + 30   log r  [20,  ]  (2024年 5月20日〜              )

---------------------------------------------------------------------

軌道要素はM.P.E.C. 2024-R10に掲載されたものです。
光度グラフはComet for Windowsで作成したものです。

---------------------------------------------------------------------

Copyright(C) Seiichi Yoshida (comet@aerith.net). All rights reserved.